This is the latest recevied weather packets stored in our database for station/object DB0BLK-10. If no packets are shown the sender has not sent any weather packets the latest 10 day(s).
| Time | Temp. | Humidity | Pressure | Rain* | Wind** | Luminosity | Snow |
|---|---|---|---|---|---|---|---|
| 1777622505 | 26.67° C | 32% | 1027.7 hPa | - | - | - | - |
| 1777621604 | 26.67° C | 32% | 1027.9 hPa | - | - | - | - |
| 1777620703 | 26.11° C | 32% | 1027.8 hPa | - | - | - | - |
| 1777619802 | 26.11° C | 32% | 1027.7 hPa | - | - | - | - |
| 1777618901 | 26.11° C | 32% | 1027.7 hPa | - | - | - | - |
| 1777618001 | 26.11° C | 33% | 1027.5 hPa | - | - | - | - |
| 1777617101 | 26.11° C | 32% | 1027.4 hPa | - | - | - | - |
| 1777616200 | 26.11° C | 33% | 1027.3 hPa | - | - | - | - |
| 1777615300 | 26.11° C | 33% | 1027.3 hPa | - | - | - | - |
| 1777614399 | 26.11° C | 33% | 1027.3 hPa | - | - | - | - |
| 1777613498 | 26.11° C | 33% | 1027.2 hPa | - | - | - | - |
| 1777612597 | 26.11° C | 33% | 1027.2 hPa | - | - | - | - |
| 1777611696 | 25.56° C | 32% | 1027.1 hPa | - | - | - | - |
| 1777610796 | 26.11° C | 32% | 1027 hPa | - | - | - | - |
| 1777609895 | 26.11° C | 32% | 1027.1 hPa | - | - | - | - |
| 1777608994 | 26.11° C | 32% | 1026.9 hPa | - | - | - | - |
| 1777608093 | 26.11° C | 32% | 1026.8 hPa | - | - | - | - |
| 1777607193 | 26.11° C | 32% | 1026.7 hPa | - | - | - | - |
| 1777606292 | 26.11° C | 32% | 1026.7 hPa | - | - | - | - |
| 1777605391 | 26.11° C | 32% | 1026.8 hPa | - | - | - | - |
| 1777604491 | 26.11° C | 31% | 1026.8 hPa | - | - | - | - |
| 1777603590 | 26.11° C | 32% | 1027.1 hPa | - | - | - | - |
| 1777602689 | 26.11° C | 31% | 1027.1 hPa | - | - | - | - |
| 1777586474 | 27.22° C | 29% | 1027.2 hPa | - | - | - | - |
| 1777584672 | 27.78° C | 29% | 1027.2 hPa | - | - | - | - |
* Rain since midnight (hover to see other rain measurements)
** Current wind speed in m/s (hover to see current wind gust speed)